Regional Weather Roundup
Issued by NWS Grand Forks, ND

Home | Current Version | Previous Version | Text Only | Print | Product List | Glossary On
Versions: 1 2 3 4 5 6 7 8 9 10 11 12 13 14 15 16 17 18 19 20 21 22 23 24 25 26 27 28 29 30 31 32 33 34 35 36 37 38 39 40 41 42 43 44 45 46 47 48 49 50
000
ASUS43 KFGF 300631
RWRFGF
PRAIRIE TO PINES  WEATHER ROUNDUP
NATIONAL WEATHER SERVICE EASTERN NORTH DAKOTA/GRAND FORKS ND
100 AM CDT TUE MAY 30 2017

 **SATELLITE DATA USED TO AUGMENT SKY COVER AT AUTOMATED STATIONS**
 *****  WEATHER ACROSS EASTERN NORTH DAKOTA  *****

CITY           SKY/WX    TMP DP  RH WIND       PRES   REMARKS
GRAND FORKS    CLOUDY    49  43  80 N13       29.91S
6HR MIN TEMP:  49; 6HR MAX TEMP:  52;

GRAND FRKS AFB CLOUDY    47  41  80 N13G21    29.92S
DEVILS LAKE    MOCLDY    46  41  81 NW13      29.97R
6HR MIN TEMP:  46; 6HR MAX TEMP:  54; 6HR PCP: TRACE;

FARGO          CLOUDY    50  44  80 N10       29.92S
WAHPETON ARPT  CLOUDY    52  43  71 NW7       29.92S
$$

 ***** WEATHER ACROSS CENTRAL AND WESTERN NORTH DAKOTA  *****

CITY           SKY/WX    TMP DP  RH WIND       PRES   REMARKS
BISMARCK       FAIR      43  36  76 S3        30.04R
6HR MIN TEMP:  43; 6HR MAX TEMP:  65;

MINOT          FAIR      47  38  71 W9        30.02R
6HR MIN TEMP:  44; 6HR MAX TEMP:  64;

JAMESTOWN      MOCLDY    46  40  79 NW9       29.96S
6HR MIN TEMP:  45; 6HR MAX TEMP:  58;

MINOT AFB      FAIR      40  36  85 W6        30.01S
GARRISON         N/A     39  35  86 N6        30.02S
WILLISTON      FAIR      45  30  55 CALM      30.06S
6HR MIN TEMP:  45; 6HR MAX TEMP:  69;

DICKINSON      FAIR      39  29  67 W7        30.04S
6HR MIN TEMP:  39; 6HR MAX TEMP:  63;

HETTINGER      FAIR      36  29  75 W5        30.09R
6HR MIN TEMP:  36; 6HR MAX TEMP:  64;

$$

 *****  OTHER AIRPORT OBSERVATIONS IN OUR AREA  *****

CITY           SKY/WX    TMP DP  RH WIND       PRES   REMARKS
WALHALLA       NOT AVBL
GRAFTON AIRPOR CLOUDY    46  45  93 NW9       29.93S
VALLEY CITY AR CLOUDY    50  46  87 NW10      29.96S
CANDO          NOT AVBL
CAVALIER APRT  CLOUDY    45  45 100 NW12G18   29.91S FOG
GWINNER        PTCLDY    52  43  71 MISG      29.95R
SHEYENNE NWR     N/A     53  45  74 NW7       29.95S
ROLLA          FAIR      43  43 100 NW9       29.97S
 ***** THE ABOVE OBSERVATIONS ARE NON NWS ARE NOT QUALITY
       CONTROLLED AND MAY MIS-REPORT RAIN FOR SNOW...
$$

  *****  WEATHER ACROSS NORTHERN MINNESOTA  *****

CITY           SKY/WX    TMP DP  RH WIND       PRES   REMARKS
FLAG ISLAND    LGT RAIN  45  43  93 NW16      29.80S
WARROAD        DRIZZLE   43  39  87 W9        29.84R
ROSEAU         RAIN      43  37  81 NW9       29.85S
HALLOCK        CLOUDY    45  43  93 NW10      29.90R
THF RVR FALLS  LGT RAIN  45  43  93 NW12      29.89S
6HR MIN TEMP:  44; 6HR MAX TEMP:  46; 6HR PCP: TRACE;

BAUDETTE       LGT RAIN  43  43 100 W10       29.80S
6HR MIN TEMP:  43; 6HR MAX TEMP:  50; 6HR PCP:  0.02;

WASKISH        CLOUDY    45  39  81 W12G18    29.82S
CROOKSTON      DRIZZLE   45  45 100 N18       29.91S
STEPHEN NDAWN    N/A     45  43  93 NW12        N/A
GREENBUSH NDAW   N/A     43  41  93 NW12        N/A
$$
  *****  WEATHER ACROSS CENTRAL AND WEST MINNESOTA  *****

CITY           SKY/WX    TMP DP  RH WIND       PRES   REMARKS
FOSSTON        DRIZZLE   43  41  93 NW10      29.88S
BEMIDJI        CLOUDY    42  40  93 NW12      29.84S
PARK RAPIDS    CLOUDY    47  40  76 NW15      29.85S
6HR MIN TEMP:  47; 6HR MAX TEMP:  54; 6HR PCP: TRACE;

ELBOW LAKE     CLOUDY    50  46  86 W9        29.92S
6HR MIN TEMP:  51; 6HR MAX TEMP:  57;

WADENA         CLOUDY    46  41  81 NW15G24   29.87R
DETROIT LAKES  CLOUDY    45  43  93 NW16      29.90S
MOORHEAD       CLOUDY    48  43  81 NW12      29.93S
FERGUS FALLS   CLOUDY    48  45  87 N10       29.90F
MORRIS MN      CLOUDY    54  46  76 NW5       29.91S
STAPLES        CLOUDY    48  39  71 NW15G24   29.86S
$$
  *****  WEATHER ELSEWHERE ACROSS MINNESOTA  *****

CITY           SKY/WX    TMP DP  RH WIND       PRES   REMARKS
DULUTH         DRIZZLE   48  46  93 W8        29.76R FOG
6HR MIN TEMP:  49; 6HR MAX TEMP:  55; 6HR PCP: TRACE;

INTRNTL FALLS  CLOUDY    46  40  79 W7        29.76F
6HR MIN TEMP:  46; 6HR MAX TEMP:  52;

ELY            CLOUDY    46  39  76 NW5       29.74S
CLOQUET        DRIZZLE   48  43  81 W9        29.78S
WHEATON        CLOUDY    54  43  66 NW6       29.94S
BRAINERD       CLOUDY    49  41  74 NW12G22   29.84S
6HR MIN TEMP:  49; 6HR MAX TEMP:  57; 6HR PCP: TRACE;

HIBBING        CLOUDY    46  40  79 NW9       29.77S
6HR MIN TEMP:  46; 6HR MAX TEMP:  54; 6HR PCP: TRACE;

ALEXANDRIA     CLOUDY    50  45  83 NW14      29.91R
6HR MIN TEMP:  50; 6HR MAX TEMP:  55; 6HR PCP:  0.03;

SAINT CLOUD    MOCLDY    51  48  89 W10       29.86F
6HR MIN TEMP:  51; 6HR MAX TEMP:  59; 6HR PCP:  0.07;

MINNEAPOLIS    CLOUDY    56  45  66 W9        29.87S
6HR MIN TEMP:  56; 6HR MAX TEMP:  63;

$$

  *****  WEATHER ACROSS SOUTH DAKOTA  *****

CITY           SKY/WX    TMP DP  RH WIND       PRES   REMARKS
SIOUX FALLS    FAIR      48  44  86 W3        30.00R
6HR MIN TEMP:  48; 6HR MAX TEMP:  64;

BROOKINGS      CLOUDY    50  43  77 W5        29.98S
WATERTOWN      CLOUDY    49  43  80 W7        29.96S
6HR MIN TEMP:  49; 6HR MAX TEMP:  60;

HURON          CLOUDY    48  39  71 W7        29.99F
6HR MIN TEMP:  45; 6HR MAX TEMP:  67;

SISSETON         N/A     53  44  71 NW8       29.93S
ABERDEEN       FAIR      46  38  73 NW8       29.99R
6HR MIN TEMP:  46; 6HR MAX TEMP:  65;

MITCHELL       CLOUDY    53  43  68 SW6       30.01S
PIERRE         FAIR      50  36  58 W7        30.04S
6HR MIN TEMP:  46; 6HR MAX TEMP:  68;

MOBRIDGE       FAIR      46  35  65 NW9       30.00S
RAPID CITY     FAIR      43  29  57 NW9       30.12S
6HR MIN TEMP:  42; 6HR MAX TEMP:  69;

$$

  *****  SOME WEATHER IN NEARBY STATES *****

CITY           SKY/WX    TMP DP  RH WIND       PRES   REMARKS
GLASGOW MT     FAIR      47  27  45 NE10      30.11R
6HR MIN TEMP:  47; 6HR MAX TEMP:  71;

GREAT FALLS MT FAIR      60  44  55 SE8       30.11R
6HR MIN TEMP:  59; 6HR MAX TEMP:  75;

CHEYENNE WY    FAIR      47  40  76 W8        30.26F
6HR MIN TEMP:  47; 6HR MAX TEMP:  61;

SCOTTSBLUFF NE FAIR      46  38  73 N3        30.18R
6HR MIN TEMP:  46; 6HR MAX TEMP:  72;

OMAHA NE       FAIR      56  45  66 CALM      30.04R
6HR MIN TEMP:  55; 6HR MAX TEMP:  73;

DES MOINES IA  FAIR      58  44  60 W7        30.01R
6HR MIN TEMP:  58; 6HR MAX TEMP:  73;

DAVENPORT IA   FAIR      56  46  69 W7        29.96R
6HR MIN TEMP:  56; 6HR MAX TEMP:  73;

CHICAGO IL     FAIR      56  47  71 SW3       29.90R
6HR MIN TEMP:  55; 6HR MAX TEMP:  72;

EAU CLAIRE WI  CLOUDY    52  46  80 SW7       29.83S
6HR MIN TEMP:  50; 6HR MAX TEMP:  61;

LA CROSSE WI   MOCLDY    56  49  77 W7        29.86F
6HR MIN TEMP:  55; 6HR MAX TEMP:  64; 6HR PCP: TRACE;

$$

  *****  SOME NATIONAL WEATHER *****

CITY           SKY/WX    TMP DP  RH WIND       PRES   REMARKS
LA GUARDIA NY  CLOUDY    56  52  86 SE9       30.12S
6HR MIN TEMP:  56; 6HR MAX TEMP:  59;

RALEIGH NC     CLOUDY    68  68 100 CALM      30.02F
6HR MIN TEMP:  68; 6HR MAX TEMP:  80; 6HR PCP:  0.08;

ATLANTA GA     CLOUDY    70  67  90 W3        30.09S
6HR MIN TEMP:  70; 6HR MAX TEMP:  74; 6HR PCP: TRACE;

NEW ORLEANS LA CLOUDY    72  71  97 CALM      30.07S
6HR MIN TEMP:  71; 6HR MAX TEMP:  80; 6HR PCP:  0.36;

OKLAHOMA CITY  FAIR      62  53  72 S6        30.08R
6HR MIN TEMP:  62; 6HR MAX TEMP:  84;

ALBUQUERQUE NM FAIR      61  43  51 N6        30.21R
6HR MIN TEMP:  61; 6HR MAX TEMP:  73;

SALT LAKE CITY FAIR      67  44  43 S3        30.05S
6HR MIN TEMP:  67; 6HR MAX TEMP:  84;

LOS ANGELES CA CLOUDY    60  57  89 CALM      29.93R
6HR MIN TEMP:  59; 6HR M



USA.gov is the U.S. government's official web portal to all federal, state and local government web resources and services.